Date String (YYYY-MM-DD hh:mm:ss) UTC,Instrument flags,Ambient pressure (hPa),Sample flow (lpm),Bypass flow (lpm),Sample temperature (°C),Ambient temperature (°C),ASC tube jacket temperature (°C),LED temperature (°C),Box temperature (°C),Sample RH (%),Span deviation,Mass concentration (μg/m³),Mass concentration (μg/m³),Mass concentration (μg/m³)
DateTimeUTC,F1_M11,P_M11,Q1_M11,Q2_M11,T1_M11,T2_M11,T3_M11,T4_M11,T5_M11,U1_M11,ZSPAN_M11,X0_M11,X2_M11,X1_M11
2022-10-08 03:00:00,,0837.1,5.00,0.00,26.4,25.0,00.0,35.2,28.3,23.2,-001.7,0013.45,0009.21,0008.68
2022-10-08 03:01:00,,0837.0,5.00,0.00,26.4,25.0,00.0,35.2,28.3,23.2,-001.7,0013.75,0009.17,0008.65
2022-10-08 03:02:00,,0837.1,5.01,0.00,26.4,25.0,00.0,35.2,28.3,23.2,-001.5,0013.67,0009.14,0008.64
2022-10-08 03:03:00,,0837.1,5.00,0.00,26.4,25.0,00.0,35.2,28.3,23.3,-001.3,0013.65,0009.14,0008.64
2022-10-08 03:04:00,,0837.0,4.99,0.00,26.4,25.0,00.0,35.2,28.3,23.3,-001.4,0013.71,0009.16,0008.65
2022-10-08 03:05:00,,0837.0,5.00,0.00,26.5,25.0,00.0,35.2,28.3,23.4,-001.6,0013.65,0009.15,0008.66
2022-10-08 03:06:00,,0837.0,5.01,0.00,26.4,25.0,00.0,35.2,28.4,23.4,-001.8,0013.56,0009.13,0008.67
2022-10-08 03:07:00,,0837.0,5.00,0.00,26.5,25.0,00.0,35.2,28.4,23.3,-001.9,0013.24,0009.15,0008.68
2022-10-08 03:08:00,,0836.9,4.99,0.00,26.5,25.0,00.0,35.2,28.4,23.3,-001.8,0013.40,0009.19,0008.69
2022-10-08 03:09:00,,0836.9,5.00,0.00,26.5,25.0,00.0,35.2,28.4,23.3,-001.7,0014.31,0009.19,0008.69
2022-10-08 03:10:00,,0836.9,5.01,0.00,26.4,25.0,00.0,35.2,28.4,23.2,-001.6,0014.05,0009.16,0008.69
2022-10-08 03:11:00,,0836.9,4.99,0.00,26.4,25.0,00.0,35.2,28.4,23.2,-001.4,0013.81,0009.15,0008.69
2022-10-08 03:12:00,,0836.9,5.00,0.00,26.4,25.0,00.0,35.2,28.3,23.1,-001.5,0013.47,0009.16,0008.69
2022-10-08 03:13:00,,0837.0,5.01,0.00,26.4,25.0,00.0,35.2,28.3,23.2,-001.8,0013.50,0009.17,0008.68
2022-10-08 03:14:00,,0836.9,5.00,0.00,26.4,25.0,00.0,35.2,28.3,23.3,-002.0,0013.47,0009.14,0008.67
2022-10-08 03:15:00,,0836.9,4.99,0.00,26.4,25.0,00.0,35.2,28.4,23.3,-001.8,0013.61,0009.19,0008.70
2022-10-08 03:16:00,,0836.9,4.99,0.00,26.4,25.0,00.0,35.2,28.4,23.2,-001.5,0014.15,0009.22,0008.72
2022-10-08 03:17:00,,0836.9,5.00,0.00,26.4,25.0,00.0,35.2,28.3,23.3,-001.3,0014.61,0009.27,0008.74
2022-10-08 03:18:00,,0836.9,5.01,0.00,26.4,25.0,00.0,35.2,28.4,23.3,-001.3,0014.78,0009.25,0008.73
2022-10-08 03:19:00,,0836.9,5.00,0.00,26.4,25.0,00.0,35.2,28.4,23.3,-001.3,0014.53,0009.23,0008.72
2022-10-08 03:20:00,,0836.9,4.99,0.00,26.5,25.0,00.0,35.2,28.4,23.3,-001.3,0013.69,0009.22,0008.70
2022-10-08 03:21:00,,0837.0,5.00,0.00,26.5,25.1,00.0,35.2,28.4,23.3,-001.5,0014.41,0009.24,0008.72
2022-10-08 03:22:00,,0837.0,5.01,0.00,26.5,25.1,00.0,35.2,28.4,23.3,-001.5,0014.86,0009.28,0008.75
2022-10-08 03:23:00,,0836.9,5.00,0.00,26.5,25.1,00.0,35.2,28.4,23.4,-001.4,0015.11,0009.36,0008.81
2022-10-08 03:24:00,,0836.9,4.99,0.00,26.5,25.1,00.0,35.2,28.4,23.3,-001.5,0015.20,0009.40,0008.84
2022-10-08 03:25:00,,0837.0,4.99,0.00,26.5,25.1,00.0,35.2,28.4,23.3,-001.3,0015.33,0009.47,0008.88
2022-10-08 03:26:00,,0837.0,5.01,0.00,26.5,25.1,00.0,35.2,28.4,23.3,-001.4,0015.33,0009.48,0008.87
2022-10-08 03:27:00,,0837.0,5.00,0.00,26.5,25.1,00.0,35.2,28.4,23.3,-001.6,0014.96,0009.47,0008.89
2022-10-08 03:28:00,,0837.0,4.99,0.00,26.5,25.0,00.0,35.2,28.4,23.4,-002.0,0014.42,0009.47,0008.88
2022-10-08 03:29:00,,0836.9,5.01,0.00,26.5,25.0,00.0,35.2,28.4,23.4,-001.9,0014.42,0009.50,0008.89
2022-10-08 03:30:00,,0836.9,5.00,0.00,26.4,24.9,00.0,35.2,28.3,23.4,-001.8,0014.56,0009.55,0008.91
2022-10-08 03:31:00,,0837.0,4.99,0.00,26.4,24.9,00.0,35.2,28.3,23.5,-001.5,0014.56,0009.59,0008.96
2022-10-08 03:32:00,,0837.0,5.01,0.00,26.4,24.9,00.0,35.2,28.3,23.5,-001.4,0013.92,0009.61,0008.99
2022-10-08 03:33:00,,0837.0,4.99,0.00,26.4,24.8,00.0,35.2,28.3,23.6,-001.3,0013.33,0009.59,0008.98
2022-10-08 03:34:00,,0837.0,4.99,0.00,26.4,24.8,00.0,35.2,28.2,23.6,-001.5,0013.17,0009.58,0008.96
2022-10-08 03:35:00,,0837.0,5.02,0.00,26.4,24.8,00.0,35.2,28.2,23.7,-001.5,0013.34,0009.56,0008.94
2022-10-08 03:36:00,,0837.0,4.99,0.00,26.4,24.8,00.0,35.2,28.2,23.7,-001.5,0013.28,0009.49,0008.92
2022-10-08 03:37:00,,0837.0,5.00,0.00,26.4,24.8,00.0,35.2,28.2,23.7,-001.7,0013.52,0009.44,0008.88
2022-10-08 03:38:00,,0837.0,5.00,0.00,26.4,24.8,00.0,35.2,28.2,23.7,-001.6,0013.50,0009.40,0008.85
2022-10-08 03:39:00,,0837.1,5.00,0.00,26.4,24.9,00.0,35.2,28.2,23.7,-000.9,0013.36,0009.33,0008.81
2022-10-08 03:40:00,,0837.1,5.01,0.00,26.4,24.9,00.0,35.2,28.3,23.7,-000.8,0013.15,0009.27,0008.77
2022-10-08 03:41:00,,0837.0,5.00,0.00,26.4,24.9,00.0,35.2,28.3,23.7,-001.0,0012.99,0009.21,0008.74
2022-10-08 03:42:00,,0837.0,5.00,0.00,26.4,24.9,00.0,35.2,28.2,23.7,-001.4,0013.41,0009.15,0008.69
2022-10-08 03:43:00,,0837.0,5.00,0.00,26.4,24.9,00.0,35.2,28.2,23.7,-001.4,0013.83,0009.07,0008.63
2022-10-08 03:44:00,,0837.0,5.01,0.00,26.3,24.8,00.0,35.2,28.2,23.8,-001.6,0013.86,0009.04,0008.60
2022-10-08 03:45:00,,0837.0,5.00,0.00,26.3,24.8,00.0,35.2,28.2,23.8,-001.5,0013.83,0009.01,0008.58
2022-10-08 03:46:00,,0837.1,5.00,0.00,26.3,24.9,00.0,35.1,28.2,23.8,-001.3,0013.66,0008.97,0008.55
2022-10-08 03:47:00,,0837.1,4.99,0.00,26.3,24.9,00.0,35.1,28.2,23.8,-001.3,0013.87,0008.98,0008.54
2022-10-08 03:48:00,,0837.1,5.01,0.00,26.4,24.9,00.0,35.1,28.2,23.8,-001.3,0013.57,0008.98,0008.53
2022-10-08 03:49:00,,0837.1,5.01,0.00,26.3,24.9,00.0,35.1,28.3,23.8,-001.3,0013.64,0008.99,0008.53
2022-10-08 03:50:00,,0837.0,5.00,0.00,26.4,25.0,00.0,35.1,28.3,23.9,-001.5,0013.67,0009.00,0008.53
2022-10-08 03:51:00,,0837.1,5.00,0.00,26.4,25.0,00.0,35.1,28.3,23.9,-001.8,0013.64,0008.99,0008.54
2022-10-08 03:52:00,,0837.1,5.00,0.00,26.4,25.0,00.0,35.1,28.3,23.9,-002.0,0013.67,0009.00,0008.54
2022-10-08 03:53:00,,0837.1,5.00,0.00,26.4,25.0,00.0,35.1,28.3,23.9,-001.9,0013.29,0009.03,0008.55
2022-10-08 03:54:00,,0837.1,5.00,0.00,26.4,25.0,00.0,35.1,28.3,23.8,-002.0,0012.91,0009.05,0008.56
2022-10-08 03:55:00,,0837.1,5.00,0.00,26.4,25.0,00.0,35.1,28.3,23.8,-001.9,0012.79,0009.03,0008.56
2022-10-08 03:56:00,,0837.1,5.00,0.00,26.4,25.0,00.0,35.1,28.3,23.8,-001.8,0013.13,0009.14,0008.64
2022-10-08 03:57:00,,0837.1,5.00,0.00,26.4,25.0,00.0,35.2,28.3,23.7,-001.6,0013.55,0009.47,0008.94
2022-10-08 03:58:00,,0837.0,5.01,0.00,26.4,25.0,00.0,35.2,28.3,23.7,-001.5,0013.67,0009.53,0009.00
2022-10-08 03:59:00,,0837.0,4.99,0.00,26.4,25.0,00.0,35.2,28.3,23.7,-001.5,0014.45,0009.75,0009.18
